| time (UTC) | temp F | wind direction | speed MPH | gust MPH | rain 1hr in | rain 24hr in | rain mn in | humidity % | barometer mb |
| 20260905135020 | 86 | 205 | 6.0 | 12.0 | 0.00 | 0.00 | 0.00 | 73 | 1022.9 |
| 20260905134021 | 87 | 196 | 7.0 | 13.0 | 0.00 | 0.00 | 0.00 | 74 | 1023.1 |
| 20260905133021 | 87 | 189 | 6.0 | 14.0 | 0.00 | 0.00 | 0.00 | 74 | 1023.3 |
| 20260905132020 | 87 | 192 | 6.0 | 10.0 | 0.00 | 0.00 | 0.00 | 72 | 1023.2 |
| 20260905131021 | 87 | 193 | 5.0 | 10.0 | 0.00 | 0.00 | 0.00 | 72 | 1023.1 |
| 20260905130023 | 88 | 194 | 5.0 | 10.0 | 0.00 | 0.00 | 0.00 | 71 | 1023.1 |
| 20260905125021 | 87 | 186 | 6.0 | 10.0 | 0.00 | 0.00 | 0.00 | 72 | 1023.1 |
| 20260905124020 | 88 | 200 | 5.0 | 10.0 | 0.00 | 0.00 | 0.00 | 73 | 1023.1 |
| 20260905123020 | 87 | 194 | 5.0 | 10.0 | 0.00 | 0.00 | 0.00 | 72 | 1023.1 |
| 20260905122021 | 88 | 188 | 5.0 | 10.0 | 0.00 | 0.00 | 0.00 | 73 | 1023.2 |
| 20260905121019 | 88 | 171 | 6.0 | 12.0 | 0.00 | 0.00 | 0.00 | 73 | 1023.1 |
| 20260905120020 | 88 | 165 | 6.0 | 11.0 | 0.00 | 0.00 | 0.00 | 70 | 1023.2 |
| 20260905114022 | 88 | 164 | 5.0 | 10.0 | 0.00 | 0.00 | 0.00 | 70 | 1023.2 |
| 20260905112019 | 86 | 214 | 4.0 | 8.0 | 0.00 | 0.00 | 0.00 | 71 | 1023.1 |
| 20260905111020 | 87 | 193 | 4.0 | 9.0 | 0.00 | 0.00 | 0.00 | 71 | 1023.1 |
| 20260905110022 | 86 | 200 | 5.0 | 9.0 | 0.00 | 0.00 | 0.00 | 73 | 1023.3 |
| 20260905105022 | 86 | 195 | 4.0 | 8.0 | 0.00 | 0.00 | 0.00 | 71 | 1023.3 |
| 20260905104021 | 87 | 178 | 3.0 | 9.0 | 0.00 | 0.00 | 0.00 | 71 | 1023.5 |
| 20260905101021 | 87 | 169 | 3.0 | 7.0 | 0.00 | 0.00 | 0.00 | 68 | 1023.3 |
| 20260905100020 | 87 | 158 | 3.0 | 8.0 | 0.00 | 0.00 | 0.00 | 68 | 1023.4 |
| 20260905095019 | 86 | 118 | 3.0 | 6.0 | 0.00 | 0.00 | 0.00 | 67 | 1023.2 |
| 20260905094020 | 86 | 137 | 3.0 | 7.0 | 0.00 | 0.00 | 0.00 | 68 | 1023.2 |
| 20260905093020 | 85 | 156 | 2.0 | 7.0 | 0.00 | 0.00 | 0.00 | 70 | 1023.2 |
| 20260905092019 | 84 | 142 | 3.0 | 8.0 | 0.00 | 0.00 | 0.00 | 71 | 1023.2 |
| 20260905091019 | 84 | 145 | 3.0 | 7.0 | 0.00 | 0.00 | 0.00 | 71 | 1023.2 |
| 20260905090024 | 84 | 177 | 2.0 | 6.0 | 0.00 | 0.00 | 0.00 | 72 | 1023.1 |
| 20260905085020 | 83 | 177 | 2.0 | 5.0 | 0.00 | 0.00 | 0.00 | 73 | 1023.1 |
| 20260905084019 | 82 | 172 | 2.0 | 6.0 | 0.00 | 0.00 | 0.00 | 75 | 1023.1 |
| 20260905083021 | 80 | 177 | 1.0 | 4.0 | 0.00 | 0.00 | 0.00 | 77 | 1023.0 |
| 20260905082022 | 79 | 190 | 2.0 | 5.0 | 0.00 | 0.00 | 0.00 | 80 | 1022.9 |
| 20260905081021 | 78 | 198 | 2.0 | 5.0 | 0.00 | 0.00 | 0.00 | 83 | 1022.9 |
| 20260905075022 | 77 | 217 | 2.0 | 5.0 | 0.00 | 0.00 | 0.00 | 86 | 1022.9 |
| 20260905074020 | 76 | 218 | 2.0 | 4.0 | 0.00 | 0.00 | 0.00 | 87 | 1023.0 |
| 20260905072020 | 76 | 217 | 1.0 | 5.0 | 0.00 | 0.00 | 0.00 | 86 | 1022.8 |
| 20260905071019 | 76 | 300 | 2.0 | 4.0 | 0.00 | 0.00 | 0.00 | 85 | 1022.8 |
| 20260905070020 | 76 | 330 | 1.0 | 3.0 | 0.00 | 0.00 | 0.00 | 83 | 1022.7 |
| 20260905065019 | 76 | 0 | 0.0 | 0.0 | 0.00 | 0.00 | 0.00 | 83 | 1022.5 |
| 20260905064019 | 74 | 0 | 0.0 | 0.0 | 0.00 | 0.00 | 0.00 | 81 | 1022.3 |
| 20260905063021 | 74 | 330 | 0.0 | 2.0 | 0.00 | 0.00 | 0.00 | 80 | 1022.2 |
| 20260905062019 | 73 | 331 | 0.0 | 1.0 | 0.00 | 0.00 | 0.00 | 79 | 1022.1 |
| 20260905061019 | 72 | 330 | 1.0 | 3.0 | 0.00 | 0.00 | 0.00 | 78 | 1022.0 |
| 20260905060019 | 72 | 330 | 2.0 | 3.0 | 0.00 | 0.00 | 0.00 | 76 | 1021.9 |
| 20260905055020 | 71 | 331 | 2.0 | 3.0 | 0.00 | 0.00 | 0.00 | 75 | 1021.8 |
| 20260905054019 | 71 | 330 | 2.0 | 4.0 | 0.00 | 0.00 | 0.00 | 77 | 1021.6 |
| 20260905053020 | 71 | 331 | 3.0 | 4.0 | 0.00 | 0.00 | 0.00 | 78 | 1021.5 |
| 20260905052020 | 71 | 330 | 3.0 | 4.0 | 0.00 | 0.00 | 0.00 | 78 | 1021.4 |
| 20260905051020 | 70 | 331 | 3.0 | 4.0 | 0.00 | 0.00 | 0.00 | 79 | 1021.3 |
| 20260905050022 | 70 | 331 | 2.0 | 4.0 | 0.00 | 0.00 | 0.00 | 79 | 1021.2 |
| 20260905045019 | 70 | 331 | 3.0 | 5.0 | 0.00 | 0.00 | 0.00 | 79 | 1021.0 |
| 20260905043019 | 71 | 330 | 2.0 | 4.0 | 0.00 | 0.00 | 0.00 | 75 | 1021.2 |
| 20260905042019 | 71 | 303 | 3.0 | 6.0 | 0.00 | 0.00 | 0.00 | 77 | 1021.1 |
| 20260905041021 | 70 | 292 | 2.0 | 4.0 | 0.00 | 0.00 | 0.00 | 78 | 1021.1 |
| 20260905040022 | 71 | 292 | 2.0 | 4.0 | 0.00 | 0.00 | 0.00 | 78 | 1021.1 |
| 20260905035020 | 71 | 292 | 2.0 | 4.0 | 0.00 | 0.00 | 0.00 | 78 | 1021.2 |
| 20260905034019 | 72 | 291 | 2.0 | 3.0 | 0.00 | 0.00 | 0.00 | 77 | 1021.3 |
| 20260905032021 | 72 | 292 | 2.0 | 3.0 | 0.00 | 0.00 | 0.00 | 78 | 1021.1 |
| 20260905031020 | 72 | 291 | 2.0 | 4.0 | 0.00 | 0.00 | 0.00 | 79 | 1021.1 |
| 20260905030019 | 73 | 290 | 3.0 | 4.0 | 0.00 | 0.00 | 0.00 | 81 | 1021.3 |
| 20260905025019 | 73 | 290 | 3.0 | 6.0 | 0.00 | 0.00 | 0.00 | 82 | 1021.3 |
| 20260905024025 | 72 | 290 | 3.0 | 6.0 | 0.00 | 0.00 | 0.00 | 85 | 1021.2 |
| 20260905023021 | 72 | 290 | 3.0 | 4.0 | 0.00 | 0.00 | 0.00 | 85 | 1021.3 |
| 20260905022020 | 72 | 290 | 3.0 | 4.0 | 0.00 | 0.00 | 0.00 | 86 | 1021.4 |
| 20260905021020 | 72 | 290 | 3.0 | 4.0 | 0.00 | 0.00 | 0.00 | 85 | 1021.3 |
| 20260905020022 | 71 | 306 | 3.0 | 4.0 | 0.00 | 0.00 | 0.00 | 86 | 1021.4 |
| 20260905015020 | 71 | 349 | 2.0 | 4.0 | 0.00 | 0.00 | 0.00 | 86 | 1021.4 |
| 20260905014020 | 71 | 349 | 2.0 | 4.0 | 0.00 | 0.00 | 0.00 | 86 | 1021.4 |
| 20260905013020 | 72 | 337 | 3.0 | 5.0 | 0.00 | 0.00 | 0.00 | 86 | 1021.5 |
| 20260905012020 | 72 | 324 | 2.0 | 3.0 | 0.00 | 0.00 | 0.00 | 86 | 1021.6 |
| 20260905011021 | 73 | 324 | 2.0 | 3.0 | 0.00 | 0.00 | 0.00 | 87 | 1021.7 |
| 20260905010020 | 73 | 324 | 3.0 | 3.0 | 0.00 | 0.00 | 0.00 | 87 | 1021.7 |
| 20260905005021 | 73 | 324 | 2.0 | 3.0 | 0.00 | 0.00 | 0.00 | 86 | 1021.7 |
| 20260905004024 | 73 | 324 | 2.0 | 3.0 | 0.00 | 0.00 | 0.00 | 86 | 1021.8 |
| 20260905002020 | 73 | 324 | 2.0 | 3.0 | 0.00 | 0.00 | 0.00 | 86 | 1022.1 |
| 20260905001020 | 73 | 323 | 2.0 | 4.0 | 0.00 | 0.00 | 0.00 | 86 | 1022.1 |
| 20260905000026 | 73 | 333 | 3.0 | 4.0 | 0.00 | 0.00 | 0.00 | 86 | 1022.1 |
| 20260904234019 | 73 | 337 | 1.0 | 4.0 | 0.00 | 0.00 | 0.00 | 86 | 1022.2 |
| 20260904233021 | 73 | 0 | 0.0 | 0.0 | 0.00 | 0.00 | 0.00 | 86 | 1022.1 |
| 20260904232020 | 74 | 0 | 0.0 | 0.0 | 0.00 | 0.00 | 0.00 | 86 | 1022.3 |
| 20260904231021 | 74 | 0 | 0.0 | 0.0 | 0.00 | 0.00 | 0.00 | 86 | 1022.3 |
| 20260904230022 | 74 | 0 | 0.0 | 0.0 | 0.00 | 0.00 | 0.00 | 86 | 1022.2 |
| 20260904225019 | 75 | 0 | 0.0 | 0.0 | 0.00 | 0.00 | 0.00 | 86 | 1022.3 |
| 20260904224022 | 75 | 0 | 0.0 | 0.0 | 0.00 | 0.00 | 0.00 | 86 | 1022.2 |
| 20260904223019 | 75 | 0 | 0.0 | 0.0 | 0.00 | 0.00 | 0.00 | 86 | 1022.1 |
| 20260904222022 | 75 | 0 | 0.0 | 0.0 | 0.00 | 0.00 | 0.00 | 85 | 1022.3 |
| 20260904220020 | 74 | 0 | 0.0 | 0.0 | 0.00 | 0.00 | 0.00 | 84 | 1022.3 |
| 20260904215019 | 75 | 337 | 0.0 | 2.0 | 0.00 | 0.00 | 0.00 | 84 | 1022.4 |
| 20260904213019 | 75 | 337 | 0.0 | 3.0 | 0.00 | 0.00 | 0.00 | 84 | 1022.3 |
| 20260904212020 | 75 | 0 | 0.0 | 0.0 | 0.00 | 0.00 | 0.00 | 84 | 1022.3 |
| 20260904211018 | 75 | 0 | 0.0 | 0.0 | 0.00 | 0.00 | 0.00 | 84 | 1022.3 |
| 20260904210025 | 75 | 337 | 1.0 | 3.0 | 0.00 | 0.00 | 0.00 | 84 | 1022.5 |
| 20260904205018 | 75 | 336 | 1.0 | 3.0 | 0.00 | 0.00 | 0.00 | 84 | 1022.3 |
| 20260904204021 | 76 | 337 | 1.0 | 3.0 | 0.00 | 0.00 | 0.00 | 84 | 1022.3 |
| 20260904203021 | 76 | 336 | 2.0 | 4.0 | 0.00 | 0.00 | 0.00 | 84 | 1022.3 |
| 20260904202021 | 76 | 337 | 1.0 | 2.0 | 0.00 | 0.00 | 0.00 | 84 | 1022.3 |
| 20260904201020 | 76 | 337 | 2.0 | 4.0 | 0.00 | 0.00 | 0.00 | 84 | 1022.2 |
| 20260904200019 | 77 | 337 | 1.0 | 3.0 | 0.00 | 0.00 | 0.00 | 84 | 1022.0 |
| 20260904195019 | 77 | 337 | 2.0 | 3.0 | 0.00 | 0.00 | 0.00 | 84 | 1022.0 |
| 20260904193019 | 77 | 205 | 1.0 | 3.0 | 0.00 | 0.00 | 0.00 | 84 | 1021.9 |
| 20260904192021 | 78 | 0 | 0.0 | 0.0 | 0.00 | 0.00 | 0.00 | 84 | 1021.6 |
| 20260904191021 | 78 | 0 | 0.0 | 0.0 | 0.00 | 0.00 | 0.00 | 84 | 1021.5 |
| 20260904190024 | 79 | 205 | 0.0 | 2.0 | 0.00 | 0.00 | 0.00 | 84 | 1021.4 |
| 20260904185022 | 79 | 205 | 1.0 | 2.0 | 0.00 | 0.00 | 0.00 | 83 | 1021.2 |
| 20260904184026 | 79 | 205 | 1.0 | 3.0 | 0.00 | 0.00 | 0.00 | 83 | 1021.2 |
| 20260904183021 | 80 | 205 | 1.0 | 3.0 | 0.00 | 0.00 | 0.00 | 82 | 1021.1 |
| 20260904182021 | 80 | 205 | 1.0 | 3.0 | 0.00 | 0.00 | 0.00 | 82 | 1021.1 |
| 20260904175020 | 81 | 197 | 4.0 | 7.0 | 0.00 | 0.00 | 0.00 | 80 | 1020.7 |
| 20260904174023 | 82 | 229 | 3.0 | 6.0 | 0.00 | 0.00 | 0.00 | 79 | 1020.7 |
| 20260904173023 | 82 | 221 | 3.0 | 6.0 | 0.00 | 0.00 | 0.00 | 79 | 1020.6 |
| 20260904171022 | 83 | 205 | 3.0 | 8.0 | 0.00 | 0.00 | 0.00 | 77 | 1020.5 |
| 20260904170023 | 84 | 212 | 3.0 | 8.0 | 0.00 | 0.00 | 0.00 | 76 | 1020.4 |
| 20260904165022 | 84 | 227 | 3.0 | 7.0 | 0.00 | 0.00 | 0.00 | 76 | 1020.2 |
| 20260904164020 | 84 | 210 | 3.0 | 10.0 | 0.00 | 0.00 | 0.00 | 76 | 1020.4 |
| 20260904163020 | 84 | 216 | 5.0 | 10.0 | 0.00 | 0.00 | 0.00 | 76 | 1020.2 |
| 20260904162018 | 84 | 225 | 4.0 | 10.0 | 0.00 | 0.00 | 0.00 | 73 | 1020.3 |
| 20260904161022 | 84 | 210 | 5.0 | 12.0 | 0.00 | 0.00 | 0.00 | 74 | 1020.4 |
| 20260904160021 | 84 | 174 | 6.0 | 12.0 | 0.00 | 0.00 | 0.00 | 74 | 1020.4 |
| 20260904155018 | 84 | 182 | 6.0 | 11.0 | 0.00 | 0.00 | 0.00 | 74 | 1020.4 |
| 20260904154018 | 85 | 179 | 6.0 | 12.0 | 0.00 | 0.00 | 0.00 | 73 | 1020.5 |
| 20260904153019 | 85 | 192 | 5.0 | 10.0 | 0.00 | 0.00 | 0.00 | 72 | 1020.3 |
| 20260904152021 | 85 | 191 | 6.0 | 11.0 | 0.00 | 0.00 | 0.00 | 71 | 1020.5 |
| 20260904151021 | 85 | 190 | 6.0 | 12.0 | 0.00 | 0.00 | 0.00 | 71 | 1020.4 |
| 20260904150020 | 86 | 201 | 5.0 | 14.0 | 0.00 | 0.00 | 0.00 | 71 | 1020.5 |
| 20260904145020 | 85 | 197 | 5.0 | 11.0 | 0.00 | 0.00 | 0.00 | 72 | 1020.5 |
| 20260904144021 | 85 | 195 | 6.0 | 12.0 | 0.00 | 0.00 | 0.00 | 70 | 1020.8 |
| 20260904143017 | 85 | 208 | 6.0 | 11.0 | 0.00 | 0.00 | 0.00 | 70 | 1020.7 |
| 20260904142021 | 85 | 198 | 7.0 | 14.0 | 0.00 | 0.00 | 0.00 | 71 | 1020.7 |
| 20260904141020 | 85 | 212 | 6.0 | 14.0 | 0.00 | 0.00 | 0.00 | 71 | 1020.7 |